User: anonymous   Login
Location: Unspecified
(0.0000°N, 0.0000°E)
Time: 03:33:18
(UTC+00:00)
Language:

Tiros 1 despin weight - Orbit

View from above orbital plane
View from above orbital plane
View from above satellite
View from above satellite

Ground track
Ground track

The orbit data is extracted from the following two-line orbital elements,

1   115U 60002D   17173.24614612 -.00000042 +00000-0 +22311-4 0  9990
2   115 048.1663 119.6170 0034165 121.3916 239.0346 14.83090213029812
Epoch (UTC): 22 June 2017 05:54:27
Eccentricity: 0.0034165
inclination: 48.1663°
perigee height: 595 km
apogee height: 643 km
right ascension of ascending node: 119.6170°
argument of perigee: 121.3916°
revolutions per day: 14.83090213
mean anomaly at epoch: 239.0346°
orbit number at epoch: 2981

The dashed part of the orbit path shows where the satellite is in the earth's shadow,  

DLR